Location: Ehingen
(48.2869°N, 9.7112°E)
Time: 03:51:12
(UTC+01:00)

Amateur Radio Satellites - All Passes

Search period start: 18 November 2017 03:21
Search period end: 19 November 2017 03:21
Location: Ehingen, 48.2869°N, 9.7112°E

Satellite Date Start Highest point End Downlink Frequencies (MHz)
Time Altitude Azimuth
AO-7 18 Nov 03:33:59 03:42:02 48° 101° (E) 03:50:01 .
BEESAT 3 18 Nov 03:42:22 03:45:54 31° 118° (ESE) 03:49:28 437.485
BEESAT 18 Nov 03:47:39 03:51:42 27° 265° (W) 03:55:47 436.000
ISS 18 Nov 03:50:25 03:53:42 84° 203° (SSW) 03:56:58 437.550
KKS-1 18 Nov 03:51:39 03:55:40 33° 66° (ENE) 03:59:42 437.445
ITUPSAT 1 18 Nov 03:54:49 03:58:43 24° 266° (W) 04:02:38 437.325
Gurwin Techsat 1B 18 Nov 04:16:30 04:19:33 16° 306° (NW) 04:22:36 435.225
ITAMSAT 1 18 Nov 04:25:52 04:31:08 90° 303° (WNW) 04:36:20 435.822/435.867
STARS 18 Nov 04:27:20 04:31:16 32° 66° (ENE) 04:35:12 437.465
PCSat 18 Nov 04:34:33 04:37:33 15° 338° (NNW) 04:40:33 145.827
BEESAT 2 18 Nov 04:43:54 04:47:40 39° 120° (ESE) 04:51:28 435.950
CUBESAT XI-V 18 Nov 04:46:15 04:49:55 23° 268° (W) 04:53:37 437.345
M-CUBED/EXP-1 PRIME 18 Nov 04:49:05 04:52:09 19° 304° (NW) 04:55:20 437.505
SO-50 18 Nov 04:51:59 04:54:30 14° 21° (NNE) 04:57:02 436.795
nSIGHT-1 18 Nov 04:55:49 04:58:28 24° 218° (SW) 05:01:07 .
RS-15 18 Nov 04:57:17 05:09:00 66° 242° (WSW) 05:20:04 29.354- 29.394
DOVE 4 18 Nov 05:02:06 05:07:10 44° 97° (E) 05:12:01 437.250
AO-85 18 Nov 05:02:37 05:05:51 25° 116° (ESE) 05:09:13 145.980
YUBILEINY 18 Nov 05:12:44 05:20:21 35° 83° (E) 05:28:01 435.215
BEESAT 3 18 Nov 05:19:40 05:23:23 36° 317° (NW) 05:27:07 437.485
AO-7 18 Nov 05:26:56 05:34:48 48° 302° (WNW) 05:42:41 .
ISS 18 Nov 05:27:33 05:29:47 17° 222° (SW) 05:32:01 437.550
KKS-1 18 Nov 05:28:15 05:32:12 30° 264° (W) 05:36:12 437.445
LilacSat-2 18 Nov 05:29:46 05:32:12 16° 91° (E) 05:34:40 437.200
CUTE-I 18 Nov 05:30:51 05:34:16 17° 88° (E) 05:37:39 437.470
XW-2C 18 Nov 05:32:45 05:35:11 16° 91° (E) 05:37:36 145.795 - 145.815
NUDT-PHONESAT 18 Nov 05:40:08 05:41:58 13° 90° (E) 05:43:47 437.300
STRAND 1 18 Nov 05:43:13 05:47:24 26° 61° (ENE) 05:51:37 437.568
XW-2F 18 Nov 05:46:46 05:49:43 21° 93° (E) 05:52:39 145.980 - 146.000
HO-68 18 Nov 05:48:30 05:51:44 13° 83° (E) 05:54:57 435.675
FO-29 18 Nov 05:48:55 05:52:35 15° 44° (NE) 05:56:24 435.910
STARS 18 Nov 06:03:37 06:07:34 31° 264° (W) 06:11:33 437.465
ITAMSAT 1 18 Nov 06:06:43 06:09:52 16° 305° (NW) 06:13:02 435.822/435.867
KAITUO 1B 18 Nov 06:21:04 06:24:38 39° 98° (E) 06:28:10 145.475/437.950
BEESAT 2 18 Nov 06:21:52 06:25:29 30° 320° (NW) 06:29:07 435.950
PCSat 18 Nov 06:22:34 06:23:28 10° 4° (N) 06:24:21 145.827
XW-2D 18 Nov 06:25:46 06:29:33 64° 101° (E) 06:33:20 145.860 - 145.880
SO-50 18 Nov 06:31:43 06:36:08 43° 43° (NE) 06:40:35 436.795
DOVE 4 18 Nov 06:40:04 06:44:38 30° 296° (WNW) 06:49:04 437.250
XW-2B 18 Nov 06:40:27 06:44:16 90° 117° (ESE) 06:48:05 145.730 - 145.750
AO-85 18 Nov 06:42:18 06:46:02 41° 316° (NW) 06:50:00 145.980
BEESAT 3 18 Nov 07:00:58 07:02:03 11° 339° (NNW) 07:03:09 437.485
LilacSat-2 18 Nov 07:03:03 07:06:44 46° 288° (WNW) 07:10:24 437.200
UWE-3 18 Nov 07:05:56 07:08:15 14° 89° (E) 07:10:33 435.000/436.395/437.385
XW-2C 18 Nov 07:05:57 07:09:36 45° 288° (WNW) 07:13:14 145.795 - 145.815
YUBILEINY 18 Nov 07:08:03 07:16:41 61° 285° (WNW) 07:25:26 435.215
CUTE-I 18 Nov 07:09:33 07:14:56 78° 287° (WNW) 07:20:17 437.470
RS-15 18 Nov 07:12:18 07:18:50 17° 266° (W) 07:25:12 29.354- 29.394
NUDT-PHONESAT 18 Nov 07:12:31 07:16:07 53° 288° (WNW) 07:19:45 437.300
CUTE 1.7 + AOD 2 18 Nov 07:19:29 07:23:42 57° 101° (E) 07:27:54 437.475
XW-2F 18 Nov 07:20:28 07:23:54 34° 291° (WNW) 07:27:21 145.980 - 146.000
STRAND 1 18 Nov 07:21:16 07:26:17 52° 260° (W) 07:31:21 437.568
AO-7 18 Nov 07:21:16 07:25:38 16° 325° (NW) 07:30:00 .
FO-29 18 Nov 07:29:32 07:35:57 56° 67° (ENE) 07:43:10 435.910
HO-68 18 Nov 07:33:38 07:40:50 68° 104° (ESE) 07:47:58 435.675
CUBEBUG 2 18 Nov 07:36:05 07:40:13 49° 99° (E) 07:44:14 437.445
UNISAT 6 18 Nov 07:37:29 07:39:18 12° 57° (ENE) 07:41:07 437.425
TIGRISAT 18 Nov 07:42:46 07:44:43 13° 57° (ENE) 07:46:40 435.000
KAITUO 1B 18 Nov 07:55:39 07:58:21 19° 296° (WNW) 08:01:04 145.475/437.950
SEEDS 18 Nov 07:57:30 08:01:46 89° 102° (ESE) 08:06:01 437.485
AO-73 18 Nov 07:57:36 08:00:57 23° 93° (E) 08:04:17 145.935
XW-2A 18 Nov 08:00:44 08:04:00 48° 100° (E) 08:07:16 145.665 - 145.685
XW-2D 18 Nov 08:01:23 08:03:15 13° 299° (WNW) 08:05:07 145.860 - 145.880
BEESAT 2 18 Nov 08:03:58 08:04:28 10° 342° (NNW) 08:04:57 435.950
PCSat 18 Nov 08:05:16 08:09:10 19° 30° (NNE) 08:13:02 145.827
SO-50 18 Nov 08:12:21 08:16:30 33° 242° (WSW) 08:20:41 436.795
AAUSAT CUBESAT 2 18 Nov 08:15:59 08:20:09 64° 101° (E) 08:24:18 437.432
XW-2B 18 Nov 08:17:37 08:17:48 10° 302° (WNW) 08:17:58 145.730 - 145.750
Oscar 11 18 Nov 08:18:11 08:21:53 27° 94° (E) 08:25:36 .
AO-85 18 Nov 08:25:49 08:27:36 12° 340° (NNW) 08:29:26 145.980
ZACube-1 18 Nov 08:39:48 08:43:57 73° 102° (ESE) 08:48:05 437.345
UWE-3 18 Nov 08:41:01 08:45:08 60° 287° (WNW) 08:49:12 435.000/436.395/437.385
CUTE-I 18 Nov 08:51:14 08:54:08 15° 307° (NW) 08:57:02 437.470
CUTE 1.7 + AOD 2 18 Nov 08:56:17 08:59:07 18° 299° (WNW) 09:01:58 437.475
YUBILEINY 18 Nov 09:10:42 09:15:44 16° 311° (NW) 09:20:49 435.215
UNISAT 6 18 Nov 09:10:42 09:15:18 82° 77° (ENE) 09:19:51 437.425
CUBEBUG 2 18 Nov 09:13:30 09:16:29 19° 298° (WNW) 09:19:25 437.445
FO-29 18 Nov 09:15:30 09:21:21 34° 269° (W) 09:27:53 435.910
TIGRISAT 18 Nov 09:16:07 09:20:44 85° 75° (ENE) 09:25:15 435.000
HO-68 18 Nov 09:21:59 09:28:05 31° 304° (NW) 09:34:10 435.675
DELFI C3 18 Nov 09:22:09 09:25:38 27° 95° (E) 09:29:04 145.870
AO-73 18 Nov 09:33:30 09:37:18 36° 291° (WNW) 09:41:05 145.935
XW-2A 18 Nov 09:34:42 09:36:19 13° 297° (WNW) 09:37:56 145.665 - 145.685
SEEDS 18 Nov 09:35:07 09:36:48 12° 302° (WNW) 09:38:27 437.485
Max Valier Satellite 18 Nov 09:40:27 09:43:41 29° 96° (E) 09:46:54 145.860
PRISM 18 Nov 09:43:21 09:47:27 69° 73° (ENE) 09:51:36 437.425
EO-88 18 Nov 09:47:39 09:50:43 25° 95° (E) 09:53:46 145.990 - 145.960
EO-79 18 Nov 09:47:50 09:49:09 11° 57° (ENE) 09:50:29 145.935-145.965
PCSat 18 Nov 09:48:07 09:53:33 69° 53° (NE) 09:58:57 145.827
AAUSAT CUBESAT 2 18 Nov 09:52:37 09:55:08 16° 299° (WNW) 09:57:39 437.432
NANOSAT C BR1 18 Nov 09:53:32 09:54:55 11° 57° (ENE) 09:56:19 145.865
Oscar 11 18 Nov 09:54:10 09:58:04 34° 292° (WNW) 10:01:58 .
POLYITAN 1 18 Nov 10:00:51 10:03:15 15° 59° (ENE) 10:05:40 437.675
ZACube-1 18 Nov 10:17:36 10:19:42 14° 301° (WNW) 10:21:48 437.345
BEESAT 3 18 Nov 10:18:30 10:20:46 14° 27° (NNE) 10:23:01 437.485
AIST 2D 18 Nov 10:21:00 10:24:21 48° 73° (ENE) 10:27:43 435.315
QB50P2 18 Nov 10:22:32 10:26:01 25° 65° (ENE) 10:29:31 145.880/145.840
ESTCUBE 1 18 Nov 10:34:06 10:35:35 11° 87° (E) 10:37:03 437.505/2401.250
UNISAT 6 18 Nov 10:50:36 10:52:35 13° 272° (W) 10:54:33 437.425
BUGSAT 1 18 Nov 10:52:30 10:53:40 11° 57° (ENE) 10:54:49 437.445
TIGRISAT 18 Nov 10:56:12 10:57:59 12° 273° (W) 10:59:47 435.000
DELFI C3 18 Nov 10:56:50 11:00:21 29° 293° (WNW) 11:03:49 145.870
Max Valier Satellite 18 Nov 11:14:26 11:17:24 23° 293° (WNW) 11:20:21 145.860
DUCHIFAT 1 18 Nov 11:17:19 11:21:29 61° 72° (ENE) 11:25:40 145.980
EO-79 18 Nov 11:19:57 11:24:12 83° 78° (ENE) 11:28:29 145.935-145.965
BEESAT 2 18 Nov 11:20:49 11:23:32 17° 30° (NNE) 11:26:13 435.950
EO-88 18 Nov 11:21:13 11:24:19 27° 293° (WNW) 11:27:26 145.990 - 145.960
PRISM 18 Nov 11:21:19 11:23:12 13° 271° (W) 11:25:06 437.425
NANOSAT C BR1 18 Nov 11:25:42 11:29:56 85° 78° (ENE) 11:34:11 145.865
PCSat 18 Nov 11:32:24 11:36:26 22° 253° (WSW) 11:40:28 145.827
POLYITAN 1 18 Nov 11:34:16 11:38:31 71° 257° (WSW) 11:42:46 437.675
AO-85 18 Nov 11:49:01 11:52:11 19° 30° (NNE) 11:55:31 145.980
BEESAT 3 18 Nov 11:55:09 11:59:06 62° 50° (NE) 12:02:59 437.485
AIST 2D 18 Nov 11:56:13 11:57:49 13° 270° (W) 11:59:25 435.315
LO-87 18 Nov 11:56:53 12:00:27 71° 285° (WNW) 12:03:58 145.935 - 145.965
QB50P2 18 Nov 11:57:42 12:01:39 37° 263° (W) 12:05:37 145.880/145.840
ESTCUBE 1 18 Nov 12:08:28 12:13:02 89° 278° (W) 12:17:34 437.505/2401.250
Gurwin Techsat 1B 18 Nov 12:20:39 12:25:27 36° 65° (ENE) 12:30:16 435.225
Oscar 19 18 Nov 12:23:46 12:28:40 49° 68° (ENE) 12:33:36 437.125/150
BUGSAT 1 18 Nov 12:24:06 12:28:19 82° 76° (ENE) 12:32:31 437.445
M-CUBED/EXP-1 PRIME 18 Nov 12:30:24 12:32:44 16° 54° (NE) 12:35:10 437.505
SPROUT 18 Nov 12:33:49 12:37:55 45° 99° (E) 12:41:59 437.525
VELOX 1 18 Nov 12:44:56 12:49:08 38° 98° (E) 12:53:16 145.980
AO-7 18 Nov 12:46:52 12:53:18 26° 47° (NE) 12:59:44 .
DUCHIFAT 1 18 Nov 12:55:07 12:57:32 15° 270° (W) 12:59:58 145.980
BEESAT 2 18 Nov 12:57:51 13:01:55 80° 51° (NE) 13:05:55 435.950
EO-79 18 Nov 12:59:19 13:00:32 11° 273° (W) 13:01:46 145.935-145.965
NANOSAT C BR1 18 Nov 13:05:13 13:06:14 11° 273° (W) 13:07:14 145.865
50 SAT 18 Nov 13:13:54 13:16:05 17° 93° (E) 13:18:15 437.505
AO-85 18 Nov 13:28:43 13:33:18 74° 50° (NE) 13:38:15 145.980
BEESAT 3 18 Nov 13:33:43 13:36:11 16° 248° (WSW) 13:38:38 437.485
DX 1 18 Nov 13:41:45 13:45:48 35° 97° (E) 13:49:50 434.975-435.025
ESTCUBE 1 18 Nov 13:47:03 13:49:09 13° 303° (WNW) 13:51:15 437.505/2401.250
Gurwin Techsat 1B 18 Nov 14:00:26 14:05:21 38° 263° (W) 14:10:19 435.225
BUGSAT 1 18 Nov 14:03:01 14:04:13 11° 273° (W) 14:05:25 437.445
M-CUBED/EXP-1 PRIME 18 Nov 14:03:17 14:06:43 51° 254° (WSW) 14:10:26 437.505
Oscar 19 18 Nov 14:04:03 14:08:14 25° 267° (W) 14:12:28 437.125/150
ITAMSAT 1 18 Nov 14:08:55 14:13:31 32° 63° (ENE) 14:18:08 435.822/435.867
SPROUT 18 Nov 14:10:18 14:13:32 21° 297° (WNW) 14:16:45 437.525
FALCONSAT 3 18 Nov 14:14:38 14:15:35 11° 186° (S) 14:16:31 435.103
VELOX 1 18 Nov 14:21:40 14:25:25 27° 296° (WNW) 14:29:08 145.980
O/OREOS (USA 219) 18 Nov 14:24:13 14:28:45 62° 111° (ESE) 14:33:19 437.305
UKube-1 18 Nov 14:31:09 14:35:29 71° 103° (ESE) 14:39:48 .
AO-7 18 Nov 14:36:45 14:45:02 86° 68° (ENE) 14:53:24 .
DOVE 4 18 Nov 14:36:56 14:38:36 12° 52° (NE) 14:40:17 437.250
BEESAT 2 18 Nov 14:37:11 14:39:02 13° 250° (WSW) 14:40:53 435.950
50 SAT 18 Nov 14:45:23 14:48:18 31° 291° (WNW) 14:51:11 437.505
MOZHAYETS 4 18 Nov 14:58:30 15:02:28 28° 95° (E) 15:06:24
AO-85 18 Nov 15:10:02 15:13:20 19° 247° (WSW) 15:16:46 145.980
YUBILEINY 18 Nov 15:17:22 15:24:00 23° 56° (NE) 15:30:35 435.215
DX 1 18 Nov 15:18:08 15:21:52 28° 296° (WNW) 15:25:36 434.975-435.025
BEESAT 18 Nov 15:42:53 15:47:36 56° 101° (E) 15:52:16 436.000
ITAMSAT 1 18 Nov 15:47:56 15:52:52 41° 262° (W) 15:57:50 435.822/435.867
ITUPSAT 1 18 Nov 15:50:12 15:54:58 65° 102° (ESE) 15:59:40 437.325
O/OREOS (USA 219) 18 Nov 16:05:04 16:08:35 21° 312° (NW) 16:12:07 437.305
UKube-1 18 Nov 16:08:26 16:10:59 16° 301° (WNW) 16:13:32 .
DOVE 4 18 Nov 16:10:16 16:15:11 62° 72° (ENE) 16:20:23 437.250
LilacSat-2 18 Nov 16:15:39 16:17:45 15° 62° (ENE) 16:19:52 437.200
XW-2C 18 Nov 16:18:01 16:20:04 14° 62° (ENE) 16:22:07 145.795 - 145.815
HO-68 18 Nov 16:21:28 16:26:08 19° 47° (NE) 16:30:48 435.675
NUDT-PHONESAT 18 Nov 16:23:33 16:24:43 11° 60° (ENE) 16:25:52 437.300
XW-2F 18 Nov 16:31:19 16:33:54 18° 64° (ENE) 16:36:29 145.980 - 146.000
AO-7 18 Nov 16:32:26 16:38:48 24° 269° (W) 16:45:13 .
MOZHAYETS 4 18 Nov 16:35:31 16:39:40 36° 293° (WNW) 16:43:50
CUBESAT XI-V 18 Nov 16:37:30 16:42:11 66° 101° (ESE) 16:46:50 437.345
NO-84 18 Nov 16:45:46 16:49:26 44° 139° (SE) 16:53:20 435.350 FM
CUTE-I 18 Nov 16:55:38 17:00:35 39° 65° (ENE) 17:05:34 437.470
KAITUO 1B 18 Nov 17:04:18 17:07:34 31° 69° (ENE) 17:10:50 145.475/437.950
XW-2D 18 Nov 17:10:05 17:13:42 50° 72° (ENE) 17:17:21 145.860 - 145.880
YUBILEINY 18 Nov 17:13:24 17:22:20 83° 80° (E) 17:31:12 435.215
KKS-1 18 Nov 17:14:48 17:18:59 38° 98° (E) 17:23:08 437.445
RS-15 18 Nov 17:18:57 17:25:03 15° 93° (E) 17:31:07 29.354- 29.394
SEEDS 18 Nov 17:19:37 17:21:18 12° 58° (ENE) 17:23:00 437.485
BEESAT 18 Nov 17:21:25 17:25:00 21° 300° (WNW) 17:28:33 436.000
XW-2B 18 Nov 17:24:41 17:28:23 71° 75° (ENE) 17:32:09 145.730 - 145.750
ITUPSAT 1 18 Nov 17:28:59 17:32:20 19° 301° (WNW) 17:35:39 437.325
LilacSat-2 18 Nov 17:47:55 17:51:36 56° 260° (W) 17:55:20 437.200
STARS 18 Nov 17:48:39 17:52:42 35° 97° (E) 17:56:43 437.465
DOVE 4 18 Nov 17:49:38 17:53:19 20° 271° (W) 17:57:08 437.250
XW-2C 18 Nov 17:50:09 17:53:49 56° 260° (W) 17:57:32 145.795 - 145.815
NUDT-PHONESAT 18 Nov 17:54:23 17:58:01 73° 257° (WSW) 18:01:41 437.300
XW-2F 18 Nov 18:04:12 18:07:43 41° 262° (W) 18:11:17 145.980 - 146.000
HO-68 18 Nov 18:05:33 18:12:42 71° 68° (ENE) 18:19:54 435.675
ZACube-1 18 Nov 18:05:43 18:07:17 12° 58° (ENE) 18:08:50 437.345
UWE-3 18 Nov 18:05:51 18:09:10 21° 63° (ENE) 18:12:25 435.000/436.395/437.385
CUTE 1.7 + AOD 2 18 Nov 18:15:14 18:19:22 63° 73° (ENE) 18:23:33 437.475
CUBESAT XI-V 18 Nov 18:15:55 18:19:05 18° 300° (WNW) 18:22:15 437.345
NO-84 18 Nov 18:22:56 18:26:49 48° 339° (NNW) 18:30:55 435.350 FM
XW-2A 18 Nov 18:35:09 18:38:03 28° 69° (ENE) 18:40:58 145.665 - 145.685
CUTE-I 18 Nov 18:35:48 18:40:40 35° 264° (W) 18:45:35 437.470
CUBEBUG 2 18 Nov 18:36:53 18:41:28 66° 73° (ENE) 18:45:56 437.445
KAITUO 1B 18 Nov 18:38:40 18:41:35 22° 266° (W) 18:44:31 145.475/437.950
XW-2D 18 Nov 18:46:07 18:48:11 14° 270° (W) 18:50:16 145.860 - 145.880
KKS-1 18 Nov 18:51:37 18:55:24 27° 296° (WNW) 18:59:08 437.445
SEEDS 18 Nov 18:52:11 18:56:21 86° 256° (WSW) 19:00:34 437.485
AO-73 18 Nov 18:56:12 18:59:58 30° 67° (ENE) 19:03:40 145.935
XW-2B 18 Nov 19:02:32 19:03:03 10° 273° (W) 19:03:34 145.730 - 145.750
AAUSAT CUBESAT 2 18 Nov 19:09:03 19:13:08 66° 73° (ENE) 19:17:16 437.432
YUBILEINY 18 Nov 19:11:25 19:18:05 25° 282° (WNW) 19:24:45 435.215
Oscar 11 18 Nov 19:16:14 19:20:04 33° 68° (ENE) 19:23:56 .
RS-15 18 Nov 19:22:51 19:34:47 61° 116° (ESE) 19:46:39 29.354- 29.394
STARS 18 Nov 19:25:10 19:28:56 28° 296° (WNW) 19:32:41 437.465
STRAND 1 18 Nov 19:27:54 19:32:45 40° 98° (E) 19:37:32 437.568
ZACube-1 18 Nov 19:38:32 19:42:55 87° 73° (ENE) 19:47:12 437.345
UWE-3 18 Nov 19:40:58 19:45:19 50° 261° (W) 19:49:35 435.000/436.395/437.385
CUTE 1.7 + AOD 2 18 Nov 19:53:20 19:55:38 14° 271° (W) 19:57:56 437.475
HO-68 18 Nov 19:55:11 20:01:03 27° 268° (W) 20:06:58 435.675
NO-84 18 Nov 20:01:06 20:04:51 32° 0° (N) 20:08:42 435.350 FM
XW-2A 18 Nov 20:08:21 20:10:48 19° 266° (W) 20:13:16 145.665 - 145.685
DELFI C3 18 Nov 20:10:42 20:14:01 26° 66° (ENE) 20:17:22 145.870
CUBEBUG 2 18 Nov 20:15:40 20:18:29 16° 271° (W) 20:21:15 437.445
FO-29 18 Nov 20:19:34 20:26:57 41° 94° (E) 20:34:03 435.910
Max Valier Satellite 18 Nov 20:22:44 20:25:40 23° 66° (ENE) 20:28:36 145.860
EO-88 18 Nov 20:28:52 20:31:33 20° 65° (ENE) 20:34:14 145.990 - 145.960
AO-73 18 Nov 20:32:19 20:36:09 31° 264° (W) 20:39:57 145.935
AAUSAT CUBESAT 2 18 Nov 20:46:59 20:49:02 13° 272° (W) 20:51:05 437.432
Oscar 11 18 Nov 20:52:32 20:56:14 28° 265° (W) 20:59:58 .
UNISAT 6 18 Nov 21:00:27 21:02:20 13° 88° (E) 21:04:13 437.425
TIGRISAT 18 Nov 21:05:37 21:07:37 13° 88° (E) 21:09:36 435.000
STRAND 1 18 Nov 21:07:19 21:11:49 31° 296° (WNW) 21:16:17 437.568
ZACube-1 18 Nov 21:18:49 21:19:46 11° 273° (W) 21:20:45 437.345
RS-15 18 Nov 21:35:27 21:47:36 58° 322° (NW) 21:59:34 29.354- 29.394
nSIGHT-1 18 Nov 21:36:20 21:37:57 13° 136° (SE) 21:39:33 .
ESTCUBE 1 18 Nov 21:36:24 21:39:22 18° 60° (ENE) 21:42:21 437.505/2401.250
NO-84 18 Nov 21:38:45 21:42:53 49° 21° (NNE) 21:47:03 435.350 FM
DELFI C3 18 Nov 21:45:08 21:48:40 31° 264° (W) 21:52:15 145.870
Max Valier Satellite 18 Nov 21:56:08 21:59:22 29° 264° (W) 22:02:38 145.860
EO-88 18 Nov 22:01:39 22:04:59 34° 262° (W) 22:08:21 145.990 - 145.960
FO-29 18 Nov 22:04:30 22:12:07 54° 294° (WNW) 22:19:30 435.910
ISS 18 Nov 22:09:16 22:11:47 21° 140° (SE) 22:14:18 437.550
SO-50 18 Nov 22:29:43 22:33:41 32° 118° (ESE) 22:37:42 436.795
UNISAT 6 18 Nov 22:35:17 22:39:37 73° 285° (WNW) 22:43:50 437.425
LO-87 18 Nov 22:35:36 22:39:13 78° 75° (ENE) 22:42:51 145.935 - 145.965
TIGRISAT 18 Nov 22:40:32 22:44:49 71° 287° (WNW) 22:49:03 435.000
O/OREOS (USA 219) 18 Nov 22:51:38 22:55:43 31° 53° (NE) 22:59:45 437.305
PRISM 18 Nov 22:55:54 23:00:05 68° 103° (ESE) 23:04:13 437.425
EO-79 18 Nov 23:03:44 23:04:16 10° 87° (E) 23:04:49 145.935-145.965
NANOSAT C BR1 18 Nov 23:09:00 23:09:37 10° 87° (E) 23:10:15 145.865
nSIGHT-1 18 Nov 23:10:30 23:13:42 68° 153° (SSE) 23:16:54 .
ESTCUBE 1 18 Nov 23:11:16 23:15:43 64° 259° (W) 23:20:11 437.505/2401.250
AIST 2D 18 Nov 23:15:05 23:18:21 35° 97° (E) 23:21:37 435.315
NO-84 18 Nov 23:16:12 23:20:20 48° 220° (SW) 23:24:25 435.350 FM
POLYITAN 1 18 Nov 23:16:35 23:18:55 14° 89° (E) 23:21:13 437.675
SPROUT 18 Nov 23:30:05 23:34:16 54° 72° (ENE) 23:38:28 437.525
QB50P2 18 Nov 23:38:41 23:42:16 26° 95° (E) 23:45:49 145.880/145.840
ISS 18 Nov 23:44:40 23:47:56 86° 337° (NNW) 23:51:14 437.550
VELOX 1 18 Nov 23:45:13 23:49:31 53° 71° (ENE) 23:53:53 145.980
50 SAT 18 Nov 23:45:47 23:46:46 11° 61° (ENE) 23:47:45 437.505
FO-29 18 Nov 23:51:15 23:55:28 16° 315° (NW) 23:59:40 435.910
RS-15 18 Nov 23:52:11 00:03:16 36° 354° (N) 00:13:59 29.354- 29.394
UKube-1 18 Nov 23:55:33 23:57:35 13° 57° (ENE) 23:59:38 .
SO-50 19 Nov 00:09:48 00:14:03 41° 318° (NW) 00:18:22 436.795
UNISAT 6 19 Nov 00:15:14 00:15:30 10° 305° (NW) 00:15:46 437.425
O/OREOS (USA 219) 19 Nov 00:30:59 00:35:11 36° 253° (WSW) 00:39:18 437.305
PRISM 19 Nov 00:32:25 00:34:50 15° 301° (WNW) 00:37:15 437.425
DUCHIFAT 1 19 Nov 00:32:54 00:37:05 67° 101° (ESE) 00:41:13 145.980
Oscar 19 19 Nov 00:33:19 00:35:28 12° 86° (E) 00:37:37 437.125/150
PCSat 19 Nov 00:33:58 00:38:33 29° 111° (ESE) 00:43:09 145.827
EO-79 19 Nov 00:36:25 00:40:39 87° 284° (WNW) 00:44:50 145.935-145.965
DX 1 19 Nov 00:40:21 00:44:33 49° 70° (ENE) 00:48:48 434.975-435.025
NANOSAT C BR1 19 Nov 00:41:44 00:45:57 86° 281° (WNW) 00:50:07 145.865
nSIGHT-1 19 Nov 00:46:56 00:50:03 46° 353° (N) 00:53:10 .
AIST 2D 19 Nov 00:48:49 00:51:18 18° 295° (WNW) 00:53:47 435.315
POLYITAN 1 19 Nov 00:50:57 00:55:07 62° 287° (WNW) 00:59:14 437.675
SPROUT 19 Nov 01:07:38 01:10:29 17° 269° (W) 01:13:20 437.525
QB50P2 19 Nov 01:14:18 01:18:06 33° 293° (WNW) 01:21:53 145.880/145.840
50 SAT 19 Nov 01:15:14 01:18:25 57° 258° (WSW) 01:21:39 437.505
BEESAT 19 Nov 01:17:26 01:20:13 16° 57° (ENE) 01:23:00 436.000
ISS 19 Nov 01:21:29 01:24:39 44° 358° (N) 01:27:48 437.550
VELOX 1 19 Nov 01:23:09 01:26:17 19° 269° (W) 01:29:26 145.980
ITUPSAT 1 19 Nov 01:24:40 01:27:48 18° 58° (ENE) 01:30:56 437.325
UKube-1 19 Nov 01:28:38 01:32:58 86° 258° (WSW) 01:37:20 .
BUGSAT 1 19 Nov 01:37:20 01:41:26 85° 106° (ESE) 01:45:27 437.445
SO-50 19 Nov 01:53:20 01:55:42 14° 340° (NNW) 01:58:06 436.795
MOZHAYETS 4 19 Nov 02:03:33 02:07:51 42° 69° (ENE) 02:12:09
RS-15 19 Nov 02:07:49 02:19:25 47° 28° (NNE) 02:30:25 29.354- 29.394
CUBESAT XI-V 19 Nov 02:09:33 02:11:58 14° 57° (ENE) 02:14:24 437.345
DUCHIFAT 1 19 Nov 02:09:51 02:12:15 15° 300° (WNW) 02:14:37 145.980
Oscar 19 19 Nov 02:10:23 02:15:34 85° 105° (ESE) 02:20:45 437.125/150
Gurwin Techsat 1B 19 Nov 02:12:14 02:17:32 65° 102° (ESE) 02:22:49 435.225
EO-79 19 Nov 02:14:18 02:15:44 12° 303° (WNW) 02:17:08 145.935-145.965
PCSat 19 Nov 02:16:22 02:21:40 54° 310° (NW) 02:27:01 145.827
DX 1 19 Nov 02:17:47 02:21:00 20° 268° (W) 02:24:13 434.975-435.025
NANOSAT C BR1 19 Nov 02:19:37 02:20:57 11° 303° (WNW) 02:22:17 145.865
nSIGHT-1 19 Nov 02:23:26 02:26:37 55° 13° (NNE) 02:29:45 .
AO-7 19 Nov 02:35:09 02:41:19 22° 89° (E) 02:47:26 .
BEESAT 19 Nov 02:52:35 02:57:21 84° 255° (WSW) 03:02:10 436.000
ISS 19 Nov 02:58:08 03:01:24 70° 18° (NNE) 03:04:40 437.550
ITUPSAT 1 19 Nov 03:00:18 03:05:05 73° 256° (WSW) 03:09:54 437.325
M-CUBED/EXP-1 PRIME 19 Nov 03:11:03 03:15:28 61° 106° (ESE) 03:20:03 437.505
BUGSAT 1 19 Nov 03:14:37 03:16:08 12° 303° (WNW) 03:17:40 437.445
